Weather History for Kansas City International, MO

Change the Weather History Date:

Tuesday, July 30, 2013

  Actual Average Record
Temperature  
Mean Temperature 76 °F 79 °F  
Max Temperature 81 °F 89 °F 107 °F (1947)
Min Temperature 70 °F 69 °F 52 °F (1971)
Degree Days  
Heating Degree Days 0 0  
Month to date heating degree days 0 0  
Since 1 June heating degree days 17 9  
Since 1 July heating degree days 0 0  
Cooling Degree Days 11 14  
Month to date cooling degree days 357 405  
Year to date cooling degree days 738 787  
Since 1 June cooling degree days 633 671  
Growing Degree Days 24 (Base 50)    
Moisture  
Dew Point 70 °F    
Average Humidity 83    
Maximum Humidity 97    
Minimum Humidity 69    
Precipitation  
Precipitation 0.62 in 0.12 in 3.82 in (1958)
Month to date precipitation 2.50 4.32  
Year to date precipitation 20.55 23.38  
Snow  
Snow 0.00 in 0.00 in 0.00 in ()
Month to date snowfall 0.0 0.0  
Since 1 June snowfall 0.0 0.0  
Since 1 July snowfall 0.0 0.0  
Snow Depth 0.00 in    
Sea Level Pressure  
Sea Level Pressure 30.00 in    
Wind  
Wind Speed 5 mph (NE)    
Max Wind Speed 10 mph    
Max Gust Speed 13 mph    
Visibility 6 miles    
Events Rain    
T = Trace of Precipitation, MM = Missing Value Source: NWS Daily Summary

Daily Weather History Graph

Daily Weather History Graph

Search for Another Location

Airport:

Trip Planner

Search our weather history database for the weather conditions in past years. The results will help you decide how hot, cold, wet, or windy it might be!

Date:

Astronomy

Jul. 30, 2013 Rise Set
Actual Time 6:17 AM CDT 8:32 PM CDT
Civil Twilight 5:47 AM CDT 9:02 PM CDT
Nautical Twilight 5:10 AM CDT 9:39 PM CDT
Astronomical Twilight 4:29 AM CDT 10:19 PM CDT
Moon 12:35 AM CDT (7/30) 2:53 PM CDT (7/30)
Length of Visible Light 15h 15m
Length of Day
14h 15m
Last Quarter, 41% of the Moon is Illuminated
Jul 30
Last Quarter
Aug 6
New
Aug 14
First Quarter
Aug 20
Full
Aug 28
Last Quarter

Hourly Weather History & Observations

Time (CDT) Temp. Heat Index Dew Point Humidity Pressure Visibility Wind Dir Wind Speed Gust Speed Precip Events Conditions
12:53 AM 69.1 °F - 66.9 °F 93% 29.99 in 6.0 mi East 6.9 mph - N/A   Overcast
1:53 AM 70.0 °F - 68.0 °F 93% 29.98 in 5.0 mi ESE 6.9 mph - N/A   Overcast
2:53 AM 70.0 °F - 68.0 °F 93% 29.97 in 5.0 mi East 4.6 mph - N/A   Overcast
3:32 AM 69.8 °F - 68.0 °F 94% 30.00 in 0.5 mi ENE 4.6 mph - N/A   Overcast
3:53 AM 70.0 °F - 68.0 °F 93% 29.97 in 0.5 mi ENE 3.5 mph - N/A   Overcast
4:48 AM 71.6 °F - 68.0 °F 88% 29.99 in 2.0 mi ESE 5.8 mph - N/A   Overcast
4:49 AM 71.1 °F - 68.0 °F 90% 29.97 in 2.0 mi ESE 5.8 mph - N/A   Overcast
5:14 AM 71.6 °F - 69.8 °F 94% 29.99 in 4.0 mi ESE 6.9 mph - N/A   Overcast
5:34 AM 71.6 °F - 69.8 °F 94% 30.00 in 4.0 mi SE 4.6 mph - 0.19 in Rain Light Rain
5:43 AM 71.6 °F - 69.8 °F 94% 29.99 in 2.5 mi ESE 3.5 mph - 0.22 in Rain Rain
5:53 AM 71.1 °F - 69.1 °F 93% 29.97 in 2.5 mi Calm Calm - 0.24 in Rain Light Rain
6:06 AM 71.6 °F - 69.8 °F 94% 29.99 in 2.5 mi SE 5.8 mph - 0.03 in Rain Light Rain
6:22 AM 71.6 °F - 69.8 °F 94% 30.00 in 3.0 mi SE 3.5 mph - 0.10 in Rain Light Rain
6:24 AM 71.6 °F - 69.8 °F 94% 30.00 in 2.0 mi SE 3.5 mph - 0.11 in   Overcast
6:32 AM 71.6 °F - 69.8 °F 94% 30.00 in 2.0 mi ESE 3.5 mph - 0.13 in Rain Light Rain
6:36 AM 71.6 °F - 69.8 °F 94% 30.00 in 1.0 mi SSE 3.5 mph - 0.15 in Rain Light Rain
6:53 AM 71.1 °F - 69.1 °F 93% 29.99 in 0.8 mi NNE 3.5 mph - 0.31 in Rain Heavy Rain
7:53 AM 70.0 °F - 69.1 °F 97% 29.99 in 0.8 mi NE 4.6 mph - 0.05 in   Overcast
8:53 AM 71.1 °F - 69.1 °F 93% 30.00 in 0.8 mi ENE 3.5 mph - 0.01 in Rain Light Rain
9:32 AM 71.6 °F - 69.8 °F 94% 30.02 in 1.5 mi East 3.5 mph - 0.01 in   Light Drizzle
9:48 AM 73.4 °F - 71.6 °F 94% 30.02 in 3.0 mi Calm Calm - 0.01 in   Light Drizzle
9:53 AM 73.0 °F - 70.0 °F 90% 30.00 in 2.0 mi Calm Calm - 0.01 in   Light Drizzle
10:19 AM 73.4 °F - 71.6 °F 94% 30.02 in 4.0 mi Calm Calm - 0.00 in   Overcast
10:53 AM 75.0 °F - 72.0 °F 90% 30.00 in 5.0 mi North 3.5 mph - 0.00 in   Overcast
11:46 AM 75.2 °F - 71.6 °F 89% 30.02 in 10.0 mi North 6.9 mph - N/A   Overcast
11:53 AM 77.0 °F - 71.1 °F 82% 30.00 in 10.0 mi North 8.1 mph - N/A   Overcast
12:03 PM 77.0 °F - 71.6 °F 83% 30.03 in 10.0 mi NNE 9.2 mph - N/A   Overcast
12:26 PM 77.0 °F - 71.6 °F 83% 30.03 in 10.0 mi NNE 8.1 mph - N/A   Mostly Cloudy
12:53 PM 77.0 °F - 71.1 °F 82% 30.00 in 10.0 mi NNE 8.1 mph - N/A   Mostly Cloudy
1:00 PM 77.0 °F - 71.6 °F 83% 30.02 in 10.0 mi NNE 8.1 mph - N/A   Overcast
1:35 PM 75.2 °F - 71.6 °F 89% 30.02 in 9.0 mi North 6.9 mph - N/A   Overcast
1:53 PM 78.1 °F - 71.1 °F 79% 29.99 in 10.0 mi North 5.8 mph - N/A   Overcast
2:30 PM 78.8 °F - 69.8 °F 74% 30.02 in 10.0 mi NNE 10.4 mph - N/A   Overcast
2:49 PM 78.8 °F - 69.8 °F 74% 30.02 in 10.0 mi North 6.9 mph - N/A   Overcast
2:53 PM 79.0 °F - 70.0 °F 74% 29.99 in 10.0 mi North 8.1 mph - N/A   Overcast
3:06 PM 80.6 °F 83.9 °F 69.8 °F 70% 30.02 in 10.0 mi North 6.9 mph - N/A   Overcast
3:53 PM 80.1 °F 83.2 °F 70.0 °F 71% 29.99 in 10.0 mi North 6.9 mph - N/A   Overcast
4:16 PM 80.6 °F 83.9 °F 69.8 °F 70% 30.02 in 10.0 mi North 5.8 mph - N/A   Overcast
4:39 PM 80.6 °F 83.9 °F 69.8 °F 70% 30.02 in 10.0 mi North 9.2 mph - N/A   Overcast
4:53 PM 80.1 °F 83.6 °F 71.1 °F 74% 30.00 in 10.0 mi North 8.1 mph - N/A   Overcast
5:53 PM 79.0 °F - 70.0 °F 74% 30.00 in 10.0 mi NNW 8.1 mph - N/A   Overcast
6:53 PM 79.0 °F - 70.0 °F 74% 29.99 in 10.0 mi North 5.8 mph - N/A   Mostly Cloudy
7:53 PM 77.0 °F - 69.1 °F 76% 29.99 in 10.0 mi North 4.6 mph - N/A   Partly Cloudy
8:53 PM 73.9 °F - 69.1 °F 85% 30.01 in 10.0 mi North 3.5 mph - N/A   Clear
9:53 PM 73.0 °F - 70.0 °F 90% 30.04 in 10.0 mi NNW 4.6 mph - N/A   Mostly Cloudy
10:44 PM 73.4 °F - 69.8 °F 88% 30.08 in 10.0 mi North 5.8 mph - N/A   Overcast
10:53 PM 73.0 °F - 70.0 °F 90% 30.06 in 9.0 mi North 5.8 mph - N/A   Overcast
11:53 PM 73.0 °F - 70.0 °F 90% 30.05 in 10.0 mi North 4.6 mph - N/A   Overcast